Location: *
(43.0833°N, 13.0500°E)
Time: 03:35:17
(UTC+00:00)

Cosmos 1725 Rocket - Pass Details

Date: 15 November 2019
Orbit: 962 x 990 km, 82.9° (Epoch: 10 December)

Event Time Altitude Azimuth Distance (km) Brightness Sun altitude
Rises 16:05:42 0° 351° (N) 3,714 6.9 -4.4°
Reaches altitude 10° 16:08:14 10° 350° (N) 2,761 6.3 -4.8°
Maximum altitude 16:14:35 81° 264° (W) 1,005 4.2 -5.9°
Drops below altitude 10° 16:20:52 10° 178° (S) 2,734 6.6 -7.0°
Sets 16:23:22 0° 178° (S) 3,675 7.2 -7.4°
